,,,PA_Meas_PMT16A,,PR_Meas_QMR101_102,,RH_Meas_QMH101,,SR_Meas_QMS101,,TA_Meas_QMH101,,GenWind,,GenWind,
date,time,status,PA,status,PR,status,RH,status,SR,status,TA,status,DirAvg,status,SpdAvg,
2010-04-24, 00:00:04,VALID,1010.37,VALID,0,VALID,100.439,VALID,0,VALID,24.803,VALID,84,VALID,0.333594,
2010-04-24, 00:01:04,VALID,1010.37,VALID,0,VALID,100.401,VALID,0.105969,VALID,24.803,VALID,84,VALID,0.00351562,
2010-04-24, 00:02:04,VALID,1010.39,VALID,0,VALID,100.263,VALID,0,VALID,24.7835,VALID,82,VALID,0.551953,
2010-04-24, 00:03:04,VALID,1010.37,VALID,0,VALID,100.172,VALID,0,VALID,24.8244,VALID,66,VALID,0.547266,
2010-04-24, 00:04:04,VALID,1010.38,VALID,0,VALID,100.149,VALID,0.105969,VALID,24.803,VALID,67,VALID,0.975781,
2010-04-24, 00:05:04,VALID,1010.38,VALID,0,VALID,100.233,VALID,0,VALID,24.803,VALID,66,VALID,0.721875,
2010-04-24, 00:06:04,VALID,1010.38,VALID,0,VALID,100.21,VALID,0.105969,VALID,24.8049,VALID,39,VALID,0.655078,
2010-04-24, 00:07:04,VALID,1010.41,VALID,0,VALID,100.157,VALID,0.105969,VALID,24.764,VALID,37,VALID,0.646094,
2010-04-24, 00:08:04,VALID,1010.38,VALID,0,VALID,100.294,VALID,0.105969,VALID,24.764,VALID,19,VALID,0.366406,
2010-04-24, 00:09:04,VALID,1010.39,VALID,0,VALID,100.439,VALID,0.105969,VALID,24.764,VALID,19,VALID,0.300391,
2010-04-24, 00:10:04,VALID,1010.39,VALID,0,VALID,100.393,VALID,0.105969,VALID,24.7445,VALID,41,VALID,0.471875,
2010-04-24, 00:11:04,VALID,1010.4,VALID,0,VALID,100.439,VALID,0,VALID,24.725,VALID,45,VALID,0.160547,
2010-04-24, 00:12:04,VALID,1010.37,VALID,0,VALID,100.431,VALID,0,VALID,24.7074,VALID,65,VALID,0.720312,
2010-04-24, 00:13:04,VALID,1010.38,VALID,0,VALID,100.431,VALID,0.105969,VALID,24.686,VALID,80,VALID,0.813281,
2010-04-24, 00:14:04,VALID,1010.41,VALID,0,VALID,100.485,VALID,0,VALID,24.6471,VALID,78,VALID,0.749609,
2010-04-24, 00:15:04,VALID,1010.4,VALID,0,VALID,100.538,VALID,0.105969,VALID,24.6684,VALID,69,VALID,0.730078,
2010-04-24, 00:16:04,VALID,1010.39,VALID,0,VALID,100.645,VALID,0.105969,VALID,24.6684,VALID,90,VALID,0.697266,
2010-04-24, 00:17:04,VALID,1010.42,VALID,0,VALID,100.683,VALID,0.105969,VALID,24.6471,VALID,88,VALID,0.291016,
2010-04-24, 00:18:04,VALID,1010.41,VALID,0,VALID,100.751,VALID,0.105969,VALID,24.6471,VALID,93,VALID,0.834766,
2010-04-24, 00:19:04,VALID,1010.44,VALID,0,VALID,100.706,VALID,0.105969,VALID,24.6471,VALID,67,VALID,0.545313,
2010-04-24, 00:20:04,VALID,1010.42,VALID,0,VALID,100.721,VALID,0.105969,VALID,24.6471,VALID,76,VALID,0.473828,
2010-04-24, 00:21:04,VALID,1010.4,VALID,0,VALID,100.729,VALID,0.105969,VALID,24.6471,VALID,45,VALID,0.479297,
2010-04-24, 00:22:04,VALID,1010.4,VALID,0,VALID,100.835,VALID,0.105969,VALID,24.6471,VALID,57,VALID,0.478516,
2010-04-24, 00:23:04,VALID,1010.38,VALID,0,VALID,100.706,VALID,0,VALID,24.6471,VALID,93,VALID,0.268359,
2010-04-24, 00:24:04,VALID,1010.37,VALID,0,VALID,100.668,VALID,0,VALID,24.6684,VALID,107,VALID,0.413281,
2010-04-24, 00:25:04,VALID,1010.35,VALID,0,VALID,100.774,VALID,0,VALID,24.7074,VALID,100,VALID,0.383984,
2010-04-24, 00:26:04,VALID,1010.37,VALID,0,VALID,100.767,VALID,0.105969,VALID,24.6879,VALID,97,VALID,0.642187,
2010-04-24, 00:27:04,VALID,1010.35,VALID,0,VALID,100.713,VALID,0,VALID,24.686,VALID,18,VALID,0.592969,
2010-04-24, 00:28:04,VALID,1010.33,VALID,0,VALID,100.561,VALID,0.105969,VALID,24.6666,VALID,11,VALID,0.452344,
2010-04-24, 00:29:04,VALID,1010.34,VALID,0,VALID,100.492,VALID,0,VALID,24.6879,VALID,11,VALID,0,
2010-04-24, 00:30:04,VALID,1010.33,VALID,0,VALID,100.523,VALID,0.105969,VALID,24.686,VALID,59,VALID,0.441797,
2010-04-24, 00:31:04,VALID,1010.32,VALID,0,VALID,100.5,VALID,0,VALID,24.6666,VALID,96,VALID,0.549219,
2010-04-24, 00:32:04,VALID,1010.34,VALID,0,VALID,100.561,VALID,0,VALID,24.7074,VALID,103,VALID,0.617188,
2010-04-24, 00:33:04,VALID,1010.31,VALID,0,VALID,100.591,VALID,0,VALID,24.7074,VALID,123,VALID,0.838281,
2010-04-24, 00:34:04,VALID,1010.28,VALID,0,VALID,100.607,VALID,0,VALID,24.7269,VALID,118,VALID,0.680078,
2010-04-24, 00:35:04,VALID,1010.29,VALID,0,VALID,100.713,VALID,0,VALID,24.725,VALID,110,VALID,0.663672,
2010-04-24, 00:36:04,VALID,1010.25,VALID,0,VALID,100.668,VALID,0.105969,VALID,24.725,VALID,74,VALID,0.557422,
2010-04-24, 00:37:04,VALID,1010.23,VALID,0,VALID,100.614,VALID,0.105969,VALID,24.7445,VALID,72,VALID,0.595703,
2010-04-24, 00:38:04,VALID,1010.2,VALID,0,VALID,100.393,VALID,0.105969,VALID,24.725,VALID,44,VALID,0.8125,
2010-04-24, 00:39:04,VALID,1010.2,VALID,0,VALID,100.286,VALID,0,VALID,24.725,VALID,81,VALID,0.809375,
2010-04-24, 00:40:04,VALID,1010.19,VALID,0,VALID,100.271,VALID,0,VALID,24.7269,VALID,74,VALID,0.705469,
2010-04-24, 00:41:04,VALID,1010.14,VALID,0,VALID,100.279,VALID,0,VALID,24.7055,VALID,101,VALID,0.987109,
2010-04-24, 00:42:04,VALID,1010.13,VALID,0,VALID,100.225,VALID,0.105969,VALID,24.6666,VALID,92,VALID,1.01055,
2010-04-24, 00:43:04,VALID,1010.11,VALID,0,VALID,100.218,VALID,0.105969,VALID,24.6666,VALID,64,VALID,0.926562,
2010-04-24, 00:44:04,VALID,1010.09,VALID,0,VALID,100.309,VALID,0,VALID,24.6471,VALID,68,VALID,1.46836,
2010-04-24, 00:45:04,VALID,1010.07,VALID,0,VALID,100.317,VALID,0.105969,VALID,24.6471,VALID,78,VALID,1.01055,
2010-04-24, 00:46:04,VALID,1010.05,VALID,0,VALID,100.469,VALID,0,VALID,24.6276,VALID,62,VALID,0.661719,
2010-04-24, 00:47:04,VALID,1009.99,VALID,0,VALID,100.538,VALID,0.105969,VALID,24.6081,VALID,65,VALID,0.942578,
2010-04-24, 00:48:04,VALID,1009.96,VALID,0,VALID,100.538,VALID,0,VALID,24.6081,VALID,74,VALID,1.1375,
2010-04-24, 00:49:04,VALID,1009.91,VALID,0,VALID,100.622,VALID,0.105969,VALID,24.6081,VALID,46,VALID,0.545703,
2010-04-24, 00:50:04,VALID,1009.87,VALID,0,VALID,100.614,VALID,0,VALID,24.6099,VALID,85,VALID,0.617578,
2010-04-24, 00:51:04,VALID,1009.88,VALID,0,VALID,100.599,VALID,0,VALID,24.5886,VALID,91,VALID,1.06719,
2010-04-24, 00:52:04,VALID,1009.87,VALID,0,VALID,100.591,VALID,0,VALID,24.5691,VALID,87,VALID,0.542578,
2010-04-24, 00:53:04,VALID,1009.85,VALID,0,VALID,100.652,VALID,0,VALID,24.5886,VALID,78,VALID,0.516406,
2010-04-24, 00:54:04,VALID,1009.84,VALID,0,VALID,100.652,VALID,0,VALID,24.5886,VALID,66,VALID,0.453516,
2010-04-24, 00:55:04,VALID,1009.82,VALID,0,VALID,100.645,VALID,0,VALID,24.6099,VALID,66,VALID,0.0105469,
2010-04-24, 00:56:04,VALID,1009.81,VALID,0,VALID,100.706,VALID,0.105969,VALID,24.5886,VALID,57,VALID,0.270703,
2010-04-24, 00:57:04,VALID,1009.79,VALID,0,VALID,100.729,VALID,0,VALID,24.5886,VALID,58,VALID,0.264062,
2010-04-24, 00:58:04,VALID,1009.8,VALID,0,VALID,100.744,VALID,0,VALID,24.5886,VALID,117,VALID,0.602344,
2010-04-24, 00:59:04,VALID,1009.77,VALID,0,VALID,100.736,VALID,0,VALID,24.5886,VALID,105,VALID,0.508984,
2010-04-24, 01:00:04,VALID,1009.75,VALID,0,VALID,100.774,VALID,0,VALID,24.6099,VALID,105,VALID,0.0730469,
2010-04-24, 01:01:04,VALID,1009.73,VALID,0,VALID,100.767,VALID,0.105969,VALID,24.6099,VALID,77,VALID,0.883203,
2010-04-24, 01:02:04,VALID,1009.72,VALID,0,VALID,100.759,VALID,0,VALID,24.5886,VALID,103,VALID,0.974609,
2010-04-24, 01:03:04,VALID,1009.7,VALID,0,VALID,100.721,VALID,0,VALID,24.5886,VALID,99,VALID,0.759375,
2010-04-24, 01:04:04,VALID,1009.68,VALID,0,VALID,100.668,VALID,0,VALID,24.5905,VALID,85,VALID,0.705469,
2010-04-24, 01:05:04,VALID,1009.67,VALID,0,VALID,100.668,VALID,0,VALID,24.5691,VALID,110,VALID,0.48125,
2010-04-24, 01:06:04,VALID,1009.64,VALID,0,VALID,100.706,VALID,0,VALID,24.5691,VALID,111,VALID,0.307422,
2010-04-24, 01:07:04,VALID,1009.65,VALID,0,VALID,100.713,VALID,0,VALID,24.5886,VALID,111,VALID,0.638281,
2010-04-24, 01:08:04,VALID,1009.62,VALID,0,VALID,100.698,VALID,0,VALID,24.5886,VALID,100,VALID,0.390625,
2010-04-24, 01:09:04,VALID,1009.62,VALID,0,VALID,100.713,VALID,0,VALID,24.6276,VALID,124,VALID,0.530859,
2010-04-24, 01:10:04,VALID,1009.6,VALID,0,VALID,100.629,VALID,0,VALID,24.6276,VALID,146,VALID,0.894531,
2010-04-24, 01:11:04,VALID,1009.56,VALID,0,VALID,100.584,VALID,0,VALID,24.6276,VALID,133,VALID,0.627734,
2010-04-24, 01:12:04,VALID,1009.57,VALID,0,VALID,100.5,VALID,0,VALID,24.6471,VALID,109,VALID,1.38164,
2010-04-24, 01:13:04,VALID,1009.53,VALID,0,VALID,100.332,VALID,0,VALID,24.6684,VALID,110,VALID,1.37891,
2010-04-24, 01:14:04,VALID,1009.53,VALID,0,VALID,100.202,VALID,0,VALID,24.6471,VALID,109,VALID,1.3582,
2010-04-24, 01:15:04,VALID,1009.53,VALID,0,VALID,100.263,VALID,0.105969,VALID,24.6666,VALID,78,VALID,0.540234,
2010-04-24, 01:16:04,VALID,1009.48,VALID,0,VALID,100.393,VALID,0,VALID,24.6666,VALID,23,VALID,0.513672,
2010-04-24, 01:17:04,VALID,1009.49,VALID,0,VALID,100.37,VALID,0,VALID,24.6081,VALID,31,VALID,0.957812,
2010-04-24, 01:18:04,VALID,1009.46,VALID,0,VALID,100.393,VALID,0,VALID,24.5886,VALID,50,VALID,0.725,
2010-04-24, 01:19:04,VALID,1009.47,VALID,0,VALID,100.416,VALID,0,VALID,24.5886,VALID,31,VALID,0.538672,
2010-04-24, 01:20:04,VALID,1009.45,VALID,0,VALID,100.439,VALID,0,VALID,24.5691,VALID,36,VALID,0.397266,
2010-04-24, 01:21:04,VALID,1009.44,VALID,0,VALID,100.492,VALID,0,VALID,24.5496,VALID,51,VALID,0.276172,
2010-04-24, 01:22:04,VALID,1009.42,VALID,0,VALID,100.607,VALID,0,VALID,24.5496,VALID,70,VALID,0.459375,
2010-04-24, 01:23:04,VALID,1009.43,VALID,0,VALID,100.629,VALID,0.105969,VALID,24.5301,VALID,59,VALID,0.475781,
2010-04-24, 01:24:04,VALID,1009.39,VALID,0,VALID,100.69,VALID,0,VALID,24.5515,VALID,60,VALID,0.823828,
2010-04-24, 01:25:04,VALID,1009.39,VALID,0,VALID,100.767,VALID,0,VALID,24.5301,VALID,58,VALID,1.09492,
2010-04-24, 01:26:04,VALID,1009.39,VALID,0,VALID,100.843,VALID,0.105969,VALID,24.5301,VALID,86,VALID,0.680078,
2010-04-24, 01:27:04,VALID,1009.36,VALID,0,VALID,100.843,VALID,0,VALID,24.5301,VALID,93,VALID,0.800391,
2010-04-24, 01:28:04,VALID,1009.35,VALID,0,VALID,100.896,VALID,0,VALID,24.5301,VALID,75,VALID,0.955078,
2010-04-24, 01:29:04,VALID,1009.33,VALID,0,VALID,100.889,VALID,0,VALID,24.5106,VALID,100,VALID,0.930859,
2010-04-24, 01:30:04,VALID,1009.33,VALID,0,VALID,100.904,VALID,0,VALID,24.5125,VALID,94,VALID,0.896094,
2010-04-24, 01:31:04,VALID,1009.32,VALID,0,VALID,100.942,VALID,0,VALID,24.4911,VALID,72,VALID,0.880859,
2010-04-24, 01:32:04,VALID,1009.29,VALID,0,VALID,101.003,VALID,0,VALID,24.532,VALID,84,VALID,0.85625,
2010-04-24, 01:33:04,VALID,1009.26,VALID,0,VALID,101.041,VALID,0,VALID,24.4911,VALID,99,VALID,1.00312,
2010-04-24, 01:34:04,VALID,1009.26,VALID,0,VALID,101.041,VALID,0.105969,VALID,24.4911,VALID,92,VALID,0.732813,
2010-04-24, 01:35:04,VALID,1009.25,VALID,0,VALID,101.095,VALID,0,VALID,24.4911,VALID,107,VALID,0.735156,
2010-04-24, 01:36:04,VALID,1009.23,VALID,0,VALID,101.049,VALID,0,VALID,24.4911,VALID,133,VALID,0.794531,
2010-04-24, 01:37:04,VALID,1009.23,VALID,0,VALID,101.026,VALID,0.105969,VALID,24.5106,VALID,108,VALID,1.31445,
2010-04-24, 01:38:04,VALID,1009.22,VALID,0,VALID,100.988,VALID,0,VALID,24.5515,VALID,134,VALID,0.753516,
2010-04-24, 01:39:04,VALID,1009.21,VALID,0,VALID,100.957,VALID,0.105969,VALID,24.5496,VALID,106,VALID,1.05781,
2010-04-24, 01:40:04,VALID,1009.23,VALID,0,VALID,100.957,VALID,0,VALID,24.5496,VALID,137,VALID,0.904688,
2010-04-24, 01:41:04,VALID,1009.21,VALID,0,VALID,100.942,VALID,0,VALID,24.5301,VALID,137,VALID,0.969531,
2010-04-24, 01:42:04,VALID,1009.23,VALID,0,VALID,100.927,VALID,0.105969,VALID,24.5301,VALID,136,VALID,0.926562,
2010-04-24, 01:43:04,VALID,1009.22,VALID,0,VALID,100.995,VALID,0,VALID,24.5106,VALID,143,VALID,0.974219,
2010-04-24, 01:44:04,VALID,1009.24,VALID,0,VALID,101.026,VALID,0,VALID,24.5125,VALID,145,VALID,1.0918,
2010-04-24, 01:45:04,VALID,1009.24,VALID,0,VALID,101.034,VALID,0,VALID,24.4911,VALID,119,VALID,0.841406,
2010-04-24, 01:46:04,VALID,1009.22,VALID,0,VALID,101.049,VALID,0,VALID,24.4911,VALID,166,VALID,1.00117,
2010-04-24, 01:47:04,VALID,1009.2,VALID,0,VALID,101.072,VALID,0.105969,VALID,24.4911,VALID,148,VALID,0.891797,
2010-04-24, 01:48:04,VALID,1009.22,VALID,0,VALID,101.148,VALID,0,VALID,24.4911,VALID,148,VALID,0.361328,
2010-04-24, 01:49:04,VALID,1009.19,VALID,0,VALID,101.255,VALID,0.105969,VALID,24.5301,VALID,147,VALID,0.215234,
2010-04-24, 01:50:04,VALID,1009.16,VALID,0,VALID,101.232,VALID,0,VALID,24.5106,VALID,144,VALID,0.192578,
2010-04-24, 01:51:04,VALID,1009.18,VALID,0,VALID,101.178,VALID,0,VALID,24.5106,VALID,144,VALID,0,
2010-04-24, 01:52:04,VALID,1009.15,VALID,0,VALID,101.224,VALID,0,VALID,24.5515,VALID,144,VALID,0,
2010-04-24, 01:53:04,VALID,1009.15,VALID,0,VALID,101.178,VALID,0,VALID,24.5301,VALID,137,VALID,0.391797,
2010-04-24, 01:54:04,VALID,1009.17,VALID,0,VALID,101.14,VALID,0,VALID,24.5301,VALID,137,VALID,0.046875,
2010-04-24, 01:55:04,VALID,1009.13,VALID,0,VALID,101.117,VALID,0,VALID,24.5515,VALID,137,VALID,0.358984,
2010-04-24, 01:56:04,VALID,1009.13,VALID,0,VALID,101.041,VALID,0,VALID,24.5515,VALID,137,VALID,0,
2010-04-24, 01:57:04,VALID,1009.12,VALID,0,VALID,101.026,VALID,0,VALID,24.571,VALID,137,VALID,0,
2010-04-24, 01:58:04,VALID,1009.1,VALID,0,VALID,101.049,VALID,0,VALID,24.5691,VALID,137,VALID,0.0195313,
2010-04-24, 01:59:04,VALID,1009.06,VALID,0,VALID,101.049,VALID,0,VALID,24.5691,VALID,137,VALID,0.214062,
2010-04-24, 02:00:04,VALID,1009.05,VALID,0,VALID,101.034,VALID,0,VALID,24.5691,VALID,137,VALID,0.188672,
2010-04-24, 02:01:04,VALID,1009.06,VALID,0,VALID,101.056,VALID,0,VALID,24.5886,VALID,137,VALID,0,
2010-04-24, 02:02:04,VALID,1009.03,VALID,0,VALID,101.072,VALID,0,VALID,24.6099,VALID,137,VALID,0,
2010-04-24, 02:03:04,VALID,1009.04,VALID,0,VALID,101.072,VALID,0,VALID,24.6099,VALID,85,VALID,0.365234,
2010-04-24, 02:04:04,VALID,1009,VALID,0,VALID,101.041,VALID,0,VALID,24.5886,VALID,85,VALID,0.227344,
2010-04-24, 02:05:04,VALID,1009.02,VALID,0,VALID,101.034,VALID,0,VALID,24.6099,VALID,85,VALID,0.521484,
2010-04-24, 02:06:04,VALID,1008.95,VALID,0,VALID,100.965,VALID,0,VALID,24.6081,VALID,85,VALID,0.2875,
2010-04-24, 02:07:04,VALID,1008.98,VALID,0,VALID,100.942,VALID,0,VALID,24.6081,VALID,85,VALID,0.520312,
2010-04-24, 02:08:04,VALID,1008.97,VALID,0,VALID,100.866,VALID,0,VALID,24.5886,VALID,71,VALID,0.573828,
2010-04-24, 02:09:04,VALID,1008.97,VALID,0,VALID,100.889,VALID,0,VALID,24.6081,VALID,56,VALID,0.551172,
2010-04-24, 02:10:04,VALID,1008.96,VALID,0,VALID,100.881,VALID,0.105969,VALID,24.6294,VALID,53,VALID,0.424219,
2010-04-24, 02:11:04,VALID,1008.97,VALID,0,VALID,100.858,VALID,0.105969,VALID,24.6294,VALID,49,VALID,0.390625,
2010-04-24, 02:12:04,VALID,1008.98,VALID,0,VALID,100.858,VALID,0.105969,VALID,24.5886,VALID,49,VALID,0.329297,
2010-04-24, 02:13:04,VALID,1008.97,VALID,0,VALID,100.957,VALID,0.105969,VALID,24.6081,VALID,17,VALID,0.300391,
2010-04-24, 02:14:04,VALID,1008.99,VALID,0,VALID,100.965,VALID,0,VALID,24.5886,VALID,17,VALID,0.280469,
2010-04-24, 02:15:04,VALID,1009,VALID,0,VALID,100.927,VALID,0.105969,VALID,24.5886,VALID,17,VALID,0,
2010-04-24, 02:16:04,VALID,1008.97,VALID,0,VALID,100.835,VALID,0,VALID,24.5905,VALID,17,VALID,0,
2010-04-24, 02:17:04,VALID,1009.01,VALID,0,VALID,100.828,VALID,0,VALID,24.5905,VALID,17,VALID,0,
2010-04-24, 02:18:04,VALID,1009.03,VALID,0,VALID,100.82,VALID,0,VALID,24.571,VALID,17,VALID,0,
2010-04-24, 02:19:04,VALID,1008.98,VALID,0,VALID,100.873,VALID,0,VALID,24.5905,VALID,17,VALID,0.0878906,
2010-04-24, 02:20:04,VALID,1008.98,VALID,0,VALID,100.95,VALID,0,VALID,24.571,VALID,17,VALID,0.524609,
2010-04-24, 02:21:04,VALID,1008.99,VALID,0,VALID,100.995,VALID,0,VALID,24.571,VALID,17,VALID,0.510156,
2010-04-24, 02:22:04,VALID,1008.97,VALID,0,VALID,101.018,VALID,0,VALID,24.5515,VALID,17,VALID,0.485547,
2010-04-24, 02:23:04,VALID,1009,VALID,0,VALID,101.079,VALID,0,VALID,24.532,VALID,17,VALID,0.305469,
2010-04-24, 02:24:04,VALID,1009,VALID,0,VALID,101.095,VALID,0,VALID,24.5125,VALID,17,VALID,0,
2010-04-24, 02:25:04,VALID,1008.98,VALID,0,VALID,101.156,VALID,0,VALID,24.5125,VALID,17,VALID,0,
2010-04-24, 02:26:04,VALID,1008.98,VALID,0,VALID,101.24,VALID,0,VALID,24.5338,VALID,17,VALID,0,
2010-04-24, 02:27:04,VALID,1008.97,VALID,0,VALID,101.323,VALID,0,VALID,24.5125,VALID,17,VALID,0,
2010-04-24, 02:28:04,VALID,1008.98,VALID,0,VALID,101.384,VALID,0,VALID,24.5144,VALID,17,VALID,0,
2010-04-24, 02:29:04,VALID,1008.98,VALID,0,VALID,101.369,VALID,0,VALID,24.5144,VALID,17,VALID,0,
2010-04-24, 02:30:04,VALID,1009.02,VALID,0,VALID,101.362,VALID,0,VALID,24.5125,VALID,17,VALID,0,
2010-04-24, 02:31:04,VALID,1009.01,VALID,0,VALID,101.377,VALID,0,VALID,24.5125,VALID,17,VALID,0,
2010-04-24, 02:32:04,VALID,1009.01,VALID,0,VALID,101.392,VALID,0,VALID,24.493,VALID,17,VALID,0,
2010-04-24, 02:33:04,VALID,1009.04,VALID,0,VALID,101.4,VALID,0,VALID,24.5144,VALID,17,VALID,0,
2010-04-24, 02:34:04,VALID,1009.07,VALID,0,VALID,101.392,VALID,0,VALID,24.5144,VALID,17,VALID,0,
2010-04-24, 02:35:04,VALID,1009.07,VALID,0,VALID,101.423,VALID,0,VALID,24.5125,VALID,17,VALID,0.0660156,
2010-04-24, 02:36:04,VALID,1009.09,VALID,0,VALID,101.423,VALID,0,VALID,24.532,VALID,95,VALID,0.140625,
2010-04-24, 02:37:04,VALID,1009.07,VALID,0,VALID,101.407,VALID,0,VALID,24.5515,VALID,95,VALID,0,
2010-04-24, 02:38:04,VALID,1009.05,VALID,0,VALID,101.339,VALID,0,VALID,24.5728,VALID,95,VALID,0,
2010-04-24, 02:39:04,VALID,1009.05,VALID,0,VALID,101.362,VALID,0,VALID,24.5515,VALID,95,VALID,0.146094,
2010-04-24, 02:40:04,VALID,1009.04,VALID,0,VALID,101.354,VALID,0,VALID,24.5923,VALID,95,VALID,0.329297,
2010-04-24, 02:41:04,VALID,1009.09,VALID,0,VALID,101.316,VALID,0,VALID,24.5923,VALID,76,VALID,0.262891,
2010-04-24, 02:42:04,VALID,1009.08,VALID,0,VALID,101.316,VALID,0,VALID,24.5515,VALID,67,VALID,0.439844,
2010-04-24, 02:43:04,VALID,1009.04,VALID,0,VALID,101.316,VALID,0,VALID,24.5515,VALID,47,VALID,0.473828,
2010-04-24, 02:44:04,VALID,1009.06,VALID,0,VALID,101.362,VALID,0,VALID,24.5533,VALID,47,VALID,0.460938,
2010-04-24, 02:45:04,VALID,1009.04,VALID,0,VALID,101.346,VALID,0,VALID,24.532,VALID,53,VALID,0.610937,
2010-04-24, 02:46:04,VALID,1009.06,VALID,0,VALID,101.346,VALID,0,VALID,24.532,VALID,100,VALID,0.692578,
2010-04-24, 02:47:04,VALID,1009.05,VALID,0,VALID,101.362,VALID,0,VALID,24.532,VALID,103,VALID,0.169922,
2010-04-24, 02:48:04,VALID,1009.06,VALID,0,VALID,101.392,VALID,0,VALID,24.532,VALID,103,VALID,0.458203,
2010-04-24, 02:49:04,VALID,1009.02,VALID,0,VALID,101.423,VALID,0.105969,VALID,24.5301,VALID,103,VALID,0.225781,
2010-04-24, 02:50:04,VALID,1009.06,VALID,0,VALID,101.43,VALID,0.105969,VALID,24.5515,VALID,58,VALID,0.405859,
2010-04-24, 02:51:04,VALID,1009.02,VALID,0,VALID,101.423,VALID,0,VALID,24.532,VALID,58,VALID,0.5875,
2010-04-24, 02:52:04,VALID,1009.05,VALID,0,VALID,101.369,VALID,0,VALID,24.5125,VALID,64,VALID,0.56875,
2010-04-24, 02:53:04,VALID,1009.04,VALID,0,VALID,101.4,VALID,0,VALID,24.5125,VALID,73,VALID,0.419531,
2010-04-24, 02:54:04,VALID,1009.02,VALID,0,VALID,101.392,VALID,0,VALID,24.5125,VALID,73,VALID,0,
2010-04-24, 02:55:04,VALID,1009.02,VALID,0,VALID,101.4,VALID,0.105969,VALID,24.4911,VALID,73,VALID,0,
2010-04-24, 02:56:04,VALID,1009,VALID,0,VALID,101.415,VALID,0,VALID,24.5125,VALID,73,VALID,0,
2010-04-24, 02:57:04,VALID,1009.01,VALID,0,VALID,101.438,VALID,0.105969,VALID,24.5125,VALID,73,VALID,0,
2010-04-24, 02:58:04,VALID,1008.98,VALID,0,VALID,101.453,VALID,0,VALID,24.493,VALID,73,VALID,0,
2010-04-24, 02:59:04,VALID,1008.95,VALID,0,VALID,101.476,VALID,0,VALID,24.4717,VALID,73,VALID,0,
2010-04-24, 03:00:04,VALID,1008.96,VALID,0,VALID,101.491,VALID,0,VALID,24.493,VALID,73,VALID,0,
2010-04-24, 03:01:04,VALID,1008.94,VALID,0,VALID,101.552,VALID,0,VALID,24.4754,VALID,54,VALID,0.460547,
2010-04-24, 03:02:04,VALID,1008.94,VALID,0,VALID,101.537,VALID,0,VALID,24.4345,VALID,25,VALID,0.493359,
2010-04-24, 03:03:04,VALID,1008.92,VALID,0,VALID,101.583,VALID,0,VALID,24.4364,VALID,25,VALID,0.115625,
2010-04-24, 03:04:04,VALID,1008.92,VALID,0,VALID,101.613,VALID,0,VALID,24.4364,VALID,25,VALID,0,
2010-04-24, 03:05:04,VALID,1008.91,VALID,0,VALID,101.621,VALID,0,VALID,24.4169,VALID,25,VALID,0,
2010-04-24, 03:06:04,VALID,1008.89,VALID,0,VALID,101.667,VALID,0,VALID,24.3956,VALID,25,VALID,0,
2010-04-24, 03:07:04,VALID,1008.88,VALID,0,VALID,101.697,VALID,0,VALID,24.3761,VALID,25,VALID,0,
2010-04-24, 03:08:04,VALID,1008.88,VALID,0,VALID,101.735,VALID,0,VALID,24.3779,VALID,25,VALID,0,
2010-04-24, 03:09:04,VALID,1008.87,VALID,0,VALID,101.743,VALID,0,VALID,24.3761,VALID,26,VALID,0.480469,
2010-04-24, 03:10:04,VALID,1008.86,VALID,0,VALID,101.811,VALID,0,VALID,24.3371,VALID,40,VALID,0.398047,
2010-04-24, 03:11:04,VALID,1008.87,VALID,0,VALID,101.796,VALID,0,VALID,24.3371,VALID,48,VALID,0.431641,
2010-04-24, 03:12:04,VALID,1008.85,VALID,0,VALID,101.85,VALID,0,VALID,24.3389,VALID,77,VALID,0.626953,
2010-04-24, 03:13:04,VALID,1008.86,VALID,0,VALID,101.88,VALID,0,VALID,24.3389,VALID,77,VALID,0.382422,
2010-04-24, 03:14:04,VALID,1008.85,VALID,0,VALID,101.903,VALID,0,VALID,24.3389,VALID,69,VALID,0.598047,
2010-04-24, 03:15:04,VALID,1008.85,VALID,0,VALID,101.903,VALID,0,VALID,24.3371,VALID,62,VALID,0.340625,
2010-04-24, 03:16:04,VALID,1008.86,VALID,0,VALID,101.911,VALID,0,VALID,24.3371,VALID,62,VALID,0.283984,
2010-04-24, 03:17:04,VALID,1008.88,VALID,0,VALID,101.933,VALID,0,VALID,24.3371,VALID,62,VALID,0.021875,
2010-04-24, 03:18:04,VALID,1008.9,VALID,0,VALID,101.949,VALID,0.105969,VALID,24.3371,VALID,62,VALID,0,
2010-04-24, 03:19:04,VALID,1008.87,VALID,0,VALID,101.941,VALID,0,VALID,24.3176,VALID,56,VALID,0.539063,
2010-04-24, 03:20:04,VALID,1008.88,VALID,0,VALID,101.949,VALID,0,VALID,24.2963,VALID,56,VALID,0.338281,
2010-04-24, 03:21:04,VALID,1008.9,VALID,0,VALID,101.972,VALID,0.105969,VALID,24.3176,VALID,56,VALID,0.225391,
2010-04-24, 03:22:04,VALID,1008.91,VALID,0,VALID,101.964,VALID,0,VALID,24.2963,VALID,77,VALID,0.500391,
2010-04-24, 03:23:04,VALID,1008.91,VALID,0,VALID,101.979,VALID,0,VALID,24.3176,VALID,78,VALID,0.288281,
2010-04-24, 03:24:04,VALID,1008.95,VALID,0,VALID,101.994,VALID,0,VALID,24.3176,VALID,78,VALID,0,
2010-04-24, 03:25:04,VALID,1008.94,VALID,0,VALID,101.994,VALID,0.105969,VALID,24.2768,VALID,78,VALID,0.311719,
2010-04-24, 03:26:04,VALID,1008.95,VALID,0,VALID,102.017,VALID,0,VALID,24.2768,VALID,78,VALID,0.339453,
2010-04-24, 03:27:04,VALID,1008.97,VALID,0,VALID,102.04,VALID,0,VALID,24.2573,VALID,65,VALID,0.292578,
2010-04-24, 03:28:04,VALID,1008.98,VALID,0,VALID,102.04,VALID,0.105969,VALID,24.2768,VALID,65,VALID,0.213672,
2010-04-24, 03:29:04,VALID,1008.95,VALID,0,VALID,102.033,VALID,0.105969,VALID,24.2573,VALID,65,VALID,0,
2010-04-24, 03:30:04,VALID,1008.94,VALID,0,VALID,102.055,VALID,0.105969,VALID,24.2786,VALID,50,VALID,0.219922,
2010-04-24, 03:31:04,VALID,1008.93,VALID,0,VALID,102.04,VALID,0,VALID,24.2786,VALID,50,VALID,0,
2010-04-24, 03:32:04,VALID,1008.96,VALID,0,VALID,102.078,VALID,0,VALID,24.2591,VALID,50,VALID,0.0300781,
2010-04-24, 03:33:04,VALID,1008.94,VALID,0,VALID,102.048,VALID,0.105969,VALID,24.2591,VALID,50,VALID,0.251563,
2010-04-24, 03:34:04,VALID,1008.96,VALID,0,VALID,102.071,VALID,0,VALID,24.2573,VALID,50,VALID,0.156641,
2010-04-24, 03:35:04,VALID,1008.93,VALID,0,VALID,102.055,VALID,0.105969,VALID,24.2591,VALID,50,VALID,0,
2010-04-24, 03:36:04,VALID,1008.94,VALID,0,VALID,102.063,VALID,0.105969,VALID,24.2378,VALID,50,VALID,0,
2010-04-24, 03:37:04,VALID,1008.94,VALID,0,VALID,102.086,VALID,0,VALID,24.2591,VALID,50,VALID,0,
2010-04-24, 03:38:04,VALID,1008.92,VALID,0,VALID,102.086,VALID,0,VALID,24.2591,VALID,50,VALID,0,
2010-04-24, 03:39:04,VALID,1008.97,VALID,0,VALID,102.094,VALID,0,VALID,24.2378,VALID,50,VALID,0,
2010-04-24, 03:40:04,VALID,1008.96,VALID,0,VALID,102.086,VALID,0,VALID,24.2183,VALID,50,VALID,0,
2010-04-24, 03:41:04,VALID,1008.95,VALID,0,VALID,102.094,VALID,0,VALID,24.2396,VALID,50,VALID,0.0667969,
2010-04-24, 03:42:04,VALID,1008.95,VALID,0,VALID,102.086,VALID,0.105969,VALID,24.2183,VALID,53,VALID,0,
2010-04-24, 03:43:04,VALID,1008.97,VALID,0,VALID,102.094,VALID,0,VALID,24.2396,VALID,53,VALID,0.196875,
2010-04-24, 03:44:04,VALID,1008.98,VALID,0,VALID,102.109,VALID,0,VALID,24.2396,VALID,53,VALID,0.189063,
2010-04-24, 03:45:04,VALID,1009,VALID,0,VALID,102.109,VALID,0,VALID,24.2396,VALID,69,VALID,0.548437,